This is the latest recevied weather packets stored in our database for station/object K0FJ-1. If no packets are shown the sender has not sent any weather packets the latest 10 day(s).
| Time | Temp. | Humidity | Pressure | Rain* | Wind** | Luminosity | Snow |
|---|---|---|---|---|---|---|---|
| 1778169003 | 17.22° C | 45% | 1014.3 hPa | 0 mm | - | - | - |
| 1778168703 | 17.22° C | 48% | 1014.3 hPa | 0 mm | - | - | - |
| 1778168405 | 16.67° C | 49% | 1014.3 hPa | 0 mm | - | - | - |
| 1778168103 | 16.67° C | 49% | 1014.2 hPa | 0 mm | - | - | - |
| 1778167803 | 16.11° C | 48% | 1014.3 hPa | 0 mm | - | - | - |
| 1778167503 | 15.56° C | 48% | 1014.4 hPa | 0 mm | - | - | - |
| 1778167203 | 15.56° C | 49% | 1014.4 hPa | 0 mm | - | - | - |
| 1778166903 | 15° C | 56% | 1014.3 hPa | 0 mm | - | - | - |
| 1778166603 | 15° C | 54% | 1014.4 hPa | 0 mm | - | - | - |
| 1778166304 | 14.44° C | 53% | 1014.3 hPa | 0 mm | - | - | - |
| 1778166003 | 13.89° C | 53% | 1014.4 hPa | 0 mm | - | - | - |
| 1778165703 | 13.89° C | 57% | 1014.4 hPa | 0 mm | - | - | - |
| 1778165404 | 13.33° C | 57% | 1014.4 hPa | 0 mm | - | - | - |
| 1778165103 | 12.78° C | 61% | 1014.4 hPa | 0 mm | - | - | - |
| 1778164805 | 12.22° C | 63% | 1014.4 hPa | 0 mm | - | - | - |
| 1778164503 | 12.22° C | 66% | 1014.4 hPa | 0 mm | - | - | - |
| 1778164203 | 11.11° C | 66% | 1014.4 hPa | 0 mm | - | - | - |
| 1778163903 | 11.11° C | 68% | 1014.4 hPa | 0 mm | - | - | - |
| 1778163603 | 10.56° C | 69% | 1014.4 hPa | 0 mm | - | - | - |
| 1778163303 | 10° C | 69% | 1014.5 hPa | 0 mm | - | - | - |
| 1778163004 | 10° C | 70% | 1014.5 hPa | 0 mm | - | - | - |
| 1778162703 | 9.44° C | 72% | 1014.6 hPa | 0 mm | - | - | - |
| 1778162405 | 8.89° C | 73% | 1014.6 hPa | 0 mm | - | - | - |
| 1778162103 | 8.89° C | 75% | 1014.6 hPa | 0 mm | - | - | - |
| 1778161803 | 8.33° C | 76% | 1014.6 hPa | 0 mm | - | - | - |
* Rain latest hour (hover to see other rain measurements)
** Current wind speed in m/s (hover to see current wind gust speed)